RYR4C EPKK-LICJ

Flight info

Callsign RYR4C
Flight time 1h 59m
Altitude 38000
Route BABKO DCT NIDOK DCT XOMBA DCT KOPRY DCT NIVES DCT KOREX DCT VELUG DCT URIPI DCT MOLUX DCT BEDPI DCT AMANO DCT ROSAS
Aircraft B738/M-SDFGIJ1LRWY/SB1

Departure

Time 2026-05-04 08:33
Airport Kraków John Paul II International Airport (EPKK)

Arrival

Time 2026-05-04 10:32
Airport Falcone–Borsellino Airport (LICJ)
Time Latitude Longitude Altitude Speed Heading
2026-05-04 07:52 50.07317 19.79921 800 ft 0 kts 167°
2026-05-04 08:21 50.07323 19.79919 800 ft 2 kts 167°
2026-05-04 08:22 50.07337 19.79913 800 ft 2 kts 167°
2026-05-04 08:22 50.07352 19.79908 800 ft 1 kts 167°
2026-05-04 08:24 50.07374 19.79848 800 ft 0 kts 76°
2026-05-04 08:27 50.07431 19.80248 800 ft 12 kts 78°
2026-05-04 08:28 50.07460 19.80367 800 ft 11 kts 36°
2026-05-04 08:28 50.07541 19.80412 800 ft 13 kts 15°
2026-05-04 08:28 50.07630 19.80407 800 ft 12 kts 348°
2026-05-04 08:28 50.07712 19.80380 801 ft 11 kts 348°
2026-05-04 08:29 50.07785 19.80356 801 ft 10 kts 348°
2026-05-04 08:29 50.07829 19.80341 801 ft 0 kts 348°
2026-05-04 08:31 50.08005 19.80144 801 ft 26 kts 258°
2026-05-04 08:33 50.06043 19.67880 3881 ft 229 kts 235°
2026-05-04 08:33 50.04964 19.66206 4902 ft 227 kts 214°
2026-05-04 08:35 49.92402 19.68282 10973 ft 275 kts 169°
2026-05-04 08:35 49.90579 19.68898 12107 ft 266 kts 169°
2026-05-04 08:35 49.88811 19.69386 13073 ft 261 kts 177°
2026-05-04 08:35 49.87014 19.69141 13819 ft 264 kts 200°
2026-05-04 08:37 49.77107 19.60589 17870 ft 296 kts 210°
2026-05-04 08:37 49.75255 19.58999 18255 ft 311 kts 210°
2026-05-04 08:37 49.73342 19.57358 18625 ft 326 kts 210°
2026-05-04 08:38 49.71290 19.55600 19004 ft 341 kts 210°
2026-05-04 08:38 49.69192 19.53804 19349 ft 357 kts 210°
2026-05-04 08:38 49.66967 19.51899 19685 ft 372 kts 210°
2026-05-04 08:40 49.50306 19.37306 24116 ft 412 kts 212°
2026-05-04 08:40 49.47815 19.35079 24739 ft 417 kts 212°
2026-05-04 08:40 49.45278 19.32817 25336 ft 421 kts 211°
2026-05-04 08:41 49.42764 19.30583 25895 ft 426 kts 211°
2026-05-04 08:41 49.40189 19.28299 26479 ft 430 kts 211°
2026-05-04 08:41 49.37579 19.25989 27004 ft 435 kts 211°
2026-05-04 08:41 49.34960 19.23673 27577 ft 438 kts 211°
2026-05-04 08:42 49.32311 19.21336 28097 ft 442 kts 211°
2026-05-04 08:42 49.29608 19.18953 28615 ft 447 kts 211°
2026-05-04 08:42 49.26928 19.16595 29090 ft 451 kts 211°
2026-05-04 08:42 49.24200 19.14197 29599 ft 455 kts 211°
2026-05-04 08:43 49.21444 19.11779 30104 ft 458 kts 211°
2026-05-04 08:43 49.18649 19.09329 30601 ft 462 kts 211°
2026-05-04 08:43 49.15904 19.06928 31462 ft 455 kts 211°
2026-05-04 08:43 49.13163 19.04535 32202 ft 452 kts 211°
2026-05-04 08:44 49.10449 19.02167 32778 ft 452 kts 211°
2026-05-04 08:44 49.07734 18.99802 33522 ft 447 kts 211°
2026-05-04 08:46 48.89088 18.83621 37030 ft 439 kts 211°
2026-05-04 08:46 48.86453 18.81367 37525 ft 439 kts 210°
2026-05-04 08:46 48.83735 18.79264 37962 ft 440 kts 207°
2026-05-04 08:46 48.80952 18.77299 38106 ft 444 kts 206°
2026-05-04 08:47 48.78132 18.75395 38126 ft 442 kts 205°
2026-05-04 08:47 48.72568 18.71690 38116 ft 437 kts 205°
2026-05-04 08:48 48.67001 18.67943 38112 ft 438 kts 206°
2026-05-04 08:48 48.61440 18.64155 38115 ft 439 kts 206°
2026-05-04 08:49 48.55891 18.60356 38113 ft 439 kts 206°
2026-05-04 08:50 48.36463 18.47076 38113 ft 439 kts 206°
2026-05-04 08:51 48.30933 18.43314 38108 ft 440 kts 206°
2026-05-04 08:51 48.25344 18.39523 38103 ft 439 kts 206°
2026-05-04 08:52 48.19780 18.35757 38104 ft 440 kts 206°
2026-05-04 08:52 48.14228 18.32009 38101 ft 440 kts 206°
2026-05-04 08:54 47.91946 18.17054 38099 ft 441 kts 206°
2026-05-04 08:55 47.86369 18.13333 38103 ft 440 kts 206°
2026-05-04 08:55 47.80803 18.09628 38102 ft 439 kts 206°
2026-05-04 09:01 47.23487 17.67594 38111 ft 439 kts 208°
2026-05-04 09:01 47.18028 17.63605 38109 ft 439 kts 208°
2026-05-04 09:02 47.12566 17.59622 38109 ft 439 kts 208°
2026-05-04 09:02 47.07111 17.55652 38107 ft 438 kts 208°
2026-05-04 09:03 47.01678 17.51708 38104 ft 438 kts 208°
2026-05-04 09:03 46.96207 17.47744 38110 ft 438 kts 208°
2026-05-04 09:04 46.90785 17.43825 38109 ft 437 kts 208°
2026-05-04 09:04 46.85332 17.39895 38108 ft 438 kts 208°
2026-05-04 09:05 46.79875 17.35969 38108 ft 438 kts 208°
2026-05-04 09:05 46.74436 17.32065 38109 ft 439 kts 208°
2026-05-04 09:06 46.68980 17.28157 38107 ft 437 kts 208°
2026-05-04 09:08 46.47079 17.12561 38088 ft 440 kts 208°
2026-05-04 09:08 46.41597 17.08678 38083 ft 440 kts 208°
2026-05-04 09:09 46.36097 17.04792 38083 ft 441 kts 208°
2026-05-04 09:09 46.30616 17.00928 38082 ft 440 kts 208°
2026-05-04 09:10 46.25127 16.97069 38080 ft 439 kts 208°
2026-05-04 09:10 46.19470 16.93745 38081 ft 441 kts 201°
2026-05-04 09:11 46.13644 16.90982 38079 ft 443 kts 200°
2026-05-04 09:11 46.07763 16.88272 38081 ft 443 kts 200°
2026-05-04 09:12 46.01925 16.85533 38084 ft 444 kts 200°
2026-05-04 09:14 45.78582 16.74373 38081 ft 443 kts 201°
2026-05-04 09:14 45.72745 16.71585 38079 ft 443 kts 201°
2026-05-04 09:15 45.66888 16.68792 38080 ft 444 kts 201°
2026-05-04 09:15 45.61063 16.66021 38078 ft 443 kts 201°
2026-05-04 09:17 45.34768 16.53594 38077 ft 444 kts 201°
2026-05-04 09:18 45.28915 16.50846 38079 ft 444 kts 201°
2026-05-04 09:18 45.23064 16.48103 38081 ft 443 kts 201°
2026-05-04 09:19 45.17205 16.45362 38080 ft 444 kts 201°
2026-05-04 09:19 45.11367 16.42638 38080 ft 443 kts 201°
2026-05-04 09:20 45.05503 16.39907 38083 ft 443 kts 201°
2026-05-04 09:20 44.99639 16.37183 38084 ft 444 kts 201°
2026-05-04 09:21 44.93895 16.34520 38094 ft 443 kts 201°
2026-05-04 09:21 44.88066 16.31821 38100 ft 443 kts 201°
2026-05-04 09:22 44.82193 16.29110 38108 ft 443 kts 201°
2026-05-04 09:22 44.76377 16.26432 38111 ft 442 kts 201°
2026-05-04 09:23 44.70506 16.23734 38123 ft 443 kts 201°
2026-05-04 09:23 44.64674 16.21055 38126 ft 443 kts 201°
2026-05-04 09:25 44.41351 16.10408 38130 ft 441 kts 201°
2026-05-04 09:26 44.35517 16.07759 38127 ft 441 kts 201°
2026-05-04 09:26 44.29687 16.05119 38125 ft 441 kts 201°
2026-05-04 09:27 44.23857 16.02484 38121 ft 441 kts 202°
2026-05-04 09:27 44.18028 15.99855 38120 ft 441 kts 202°
2026-05-04 09:28 44.12204 15.97236 38119 ft 440 kts 202°
2026-05-04 09:28 44.06352 15.94607 38118 ft 441 kts 202°
2026-05-04 09:29 44.00532 15.91995 38116 ft 440 kts 202°
2026-05-04 09:29 43.94744 15.89404 38111 ft 440 kts 202°
2026-05-04 09:30 43.88901 15.86797 38109 ft 439 kts 202°
2026-05-04 09:30 43.83116 15.84220 38110 ft 438 kts 202°
2026-05-04 09:31 43.77321 15.81644 38103 ft 438 kts 202°
2026-05-04 09:31 43.71514 15.79067 38102 ft 438 kts 202°
2026-05-04 09:32 43.65716 15.76500 38105 ft 438 kts 202°
2026-05-04 09:34 43.42601 15.66313 38100 ft 436 kts 202°
2026-05-04 09:34 43.36814 15.63777 38105 ft 437 kts 201°
2026-05-04 09:35 43.31054 15.61258 38101 ft 436 kts 202°
2026-05-04 09:35 43.25260 15.58727 38102 ft 436 kts 201°
2026-05-04 09:37 43.02224 15.48719 38116 ft 434 kts 202°
2026-05-04 09:38 42.96469 15.46229 38109 ft 435 kts 202°
2026-05-04 09:38 42.90723 15.43749 38106 ft 434 kts 201°
2026-05-04 09:39 42.84887 15.41329 38113 ft 436 kts 201°
2026-05-04 09:39 42.79113 15.39022 38103 ft 434 kts 200°
2026-05-04 09:40 42.73293 15.36703 38105 ft 435 kts 200°
2026-05-04 09:40 42.67490 15.34384 38099 ft 435 kts 200°
2026-05-04 09:42 42.44348 15.25140 38094 ft 433 kts 200°
2026-05-04 09:43 42.38581 15.22846 38098 ft 434 kts 200°
2026-05-04 09:43 42.32765 15.20534 38094 ft 435 kts 200°
2026-05-04 09:44 42.26980 15.18242 38095 ft 435 kts 200°
2026-05-04 09:46 42.03802 15.09102 38093 ft 434 kts 200°
2026-05-04 09:46 41.98037 15.06839 38090 ft 435 kts 200°
2026-05-04 09:47 41.92234 15.04566 38099 ft 434 kts 200°
2026-05-04 09:49 41.69057 14.95529 38114 ft 434 kts 200°
2026-05-04 09:51 41.48745 14.87661 38150 ft 435 kts 200°
2026-05-04 09:51 41.42931 14.85418 38149 ft 434 kts 200°
2026-05-04 09:52 41.37153 14.83192 38146 ft 434 kts 200°
2026-05-04 09:52 41.31362 14.80858 38150 ft 433 kts 204°
2026-05-04 09:53 41.25859 14.77708 38155 ft 429 kts 210°
2026-05-04 09:53 41.20460 14.74393 38158 ft 430 kts 208°
2026-05-04 09:54 41.14942 14.71356 38156 ft 431 kts 207°
2026-05-04 09:54 41.09388 14.68374 38159 ft 431 kts 207°
2026-05-04 09:55 41.03828 14.65376 38166 ft 432 kts 207°
2026-05-04 09:55 40.98258 14.62360 38168 ft 433 kts 207°
2026-05-04 09:56 40.92709 14.59353 38167 ft 433 kts 207°
2026-05-04 09:56 40.87154 14.56348 38167 ft 432 kts 207°
2026-05-04 09:57 40.81576 14.53332 38162 ft 432 kts 207°
2026-05-04 09:57 40.76025 14.50334 38156 ft 432 kts 207°
2026-05-04 09:58 40.70477 14.47348 38155 ft 432 kts 208°
2026-05-04 09:58 40.64918 14.44358 38153 ft 433 kts 208°
2026-05-04 10:00 40.42577 14.32398 38146 ft 434 kts 207°
2026-05-04 10:04 40.03385 14.11627 36751 ft 432 kts 208°
2026-05-04 10:04 40.00593 14.10159 36299 ft 430 kts 208°
2026-05-04 10:04 39.97811 14.08697 35910 ft 429 kts 208°
2026-05-04 10:04 39.95052 14.07246 35516 ft 429 kts 208°
2026-05-04 10:05 39.92316 14.05808 35124 ft 430 kts 208°
2026-05-04 10:05 39.89505 14.04328 34740 ft 432 kts 208°
2026-05-04 10:05 39.86740 14.02875 34349 ft 432 kts 208°
2026-05-04 10:05 39.83929 14.01402 33908 ft 432 kts 208°
2026-05-04 10:06 39.81169 13.99958 33472 ft 431 kts 208°
2026-05-04 10:06 39.78365 13.98492 33033 ft 432 kts 207°
2026-05-04 10:06 39.75593 13.97041 32602 ft 434 kts 207°
2026-05-04 10:08 39.59181 13.88495 30009 ft 414 kts 206°
2026-05-04 10:08 39.56522 13.87115 29567 ft 411 kts 207°
2026-05-04 10:08 39.53890 13.85749 29137 ft 408 kts 207°
2026-05-04 10:08 39.51234 13.84371 28702 ft 406 kts 207°
2026-05-04 10:09 39.48629 13.83020 28274 ft 403 kts 207°
2026-05-04 10:09 39.46065 13.81692 27853 ft 400 kts 207°
2026-05-04 10:09 39.43486 13.80357 27427 ft 397 kts 207°
2026-05-04 10:09 39.40921 13.79047 26998 ft 395 kts 206°
2026-05-04 10:10 39.38400 13.77728 26549 ft 391 kts 211°
2026-05-04 10:10 39.36030 13.75981 25944 ft 388 kts 218°
2026-05-04 10:10 39.33823 13.73991 25313 ft 389 kts 220°
2026-05-04 10:10 39.31638 13.71929 24686 ft 391 kts 220°
2026-05-04 10:11 39.29431 13.69863 24062 ft 394 kts 220°
2026-05-04 10:11 39.27224 13.67842 23447 ft 396 kts 219°
2026-05-04 10:11 39.24965 13.65822 22842 ft 397 kts 219°
2026-05-04 10:11 39.22680 13.63821 22245 ft 399 kts 218°
2026-05-04 10:12 39.20375 13.61831 21772 ft 396 kts 218°
2026-05-04 10:12 39.18093 13.59880 21325 ft 393 kts 217°
2026-05-04 10:12 39.15815 13.57939 20876 ft 391 kts 218°
2026-05-04 10:12 39.13545 13.56013 20426 ft 388 kts 217°
2026-05-04 10:13 39.11320 13.54128 19982 ft 385 kts 218°
2026-05-04 10:13 39.09075 13.52229 19546 ft 382 kts 217°
2026-05-04 10:13 39.06881 13.50377 19191 ft 377 kts 218°
2026-05-04 10:13 39.04687 13.48525 18778 ft 374 kts 218°
2026-05-04 10:14 39.02536 13.46707 18291 ft 373 kts 217°
2026-05-04 10:14 39.00361 13.44867 17793 ft 372 kts 217°
2026-05-04 10:16 38.85360 13.32245 14354 ft 365 kts 216°
2026-05-04 10:16 38.83259 13.30485 13862 ft 363 kts 215°
2026-05-04 10:16 38.81160 13.28729 13484 ft 359 kts 215°
2026-05-04 10:16 38.79082 13.26991 13105 ft 354 kts 215°
2026-05-04 10:17 38.77037 13.25281 12717 ft 350 kts 215°
2026-05-04 10:17 38.75010 13.23588 12353 ft 346 kts 215°
2026-05-04 10:19 38.61417 13.12253 10149 ft 311 kts 215°
2026-05-04 10:19 38.59632 13.10770 10150 ft 297 kts 215°
2026-05-04 10:19 38.57936 13.09362 10158 ft 283 kts 215°
2026-05-04 10:19 38.56321 13.08021 9996 ft 277 kts 215°
2026-05-04 10:20 38.54702 13.06672 9699 ft 276 kts 215°
2026-05-04 10:20 38.53087 13.05328 9401 ft 275 kts 216°
2026-05-04 10:20 38.51493 13.04003 9116 ft 274 kts 215°
2026-05-04 10:20 38.49914 13.02694 8871 ft 272 kts 215°
2026-05-04 10:21 38.48315 13.01368 8571 ft 271 kts 215°
2026-05-04 10:21 38.46749 13.00070 8322 ft 269 kts 215°
2026-05-04 10:21 38.45188 12.98778 8025 ft 268 kts 214°
2026-05-04 10:21 38.43618 12.97480 7760 ft 266 kts 214°
2026-05-04 10:22 38.40514 12.94914 7188 ft 264 kts 214°
2026-05-04 10:22 38.38967 12.93635 6900 ft 264 kts 213°
2026-05-04 10:22 38.37428 12.92365 6626 ft 263 kts 213°
2026-05-04 10:23 38.35907 12.91110 6365 ft 261 kts 213°
2026-05-04 10:23 38.34404 12.89870 6106 ft 259 kts 213°
2026-05-04 10:25 38.24005 12.82324 4918 ft 224 kts 174°
2026-05-04 10:25 38.22536 12.82920 4729 ft 222 kts 156°
2026-05-04 10:25 38.21119 12.83779 4429 ft 226 kts 156°
2026-05-04 10:25 38.19697 12.84602 4141 ft 223 kts 157°
2026-05-04 10:26 38.18278 12.85381 3919 ft 218 kts 158°
2026-05-04 10:26 38.16905 12.86122 3677 ft 212 kts 158°
2026-05-04 10:26 38.15558 12.86848 3440 ft 206 kts 158°
2026-05-04 10:26 38.14265 12.87547 3242 ft 199 kts 158°
2026-05-04 10:27 38.13016 12.88261 3041 ft 194 kts 152°
2026-05-04 10:27 38.12016 12.89372 2838 ft 190 kts 121°
2026-05-04 10:27 38.11723 12.90942 2715 ft 184 kts 90°
2026-05-04 10:27 38.11944 12.92519 2562 ft 181 kts 72°
2026-05-04 10:28 38.12448 12.93984 2391 ft 178 kts 66°
2026-05-04 10:28 38.12956 12.95390 2265 ft 175 kts 68°
2026-05-04 10:28 38.13448 12.96825 2046 ft 181 kts 69°
2026-05-04 10:28 38.13950 12.98312 1835 ft 180 kts 69°
2026-05-04 10:29 38.14436 12.99780 1565 ft 182 kts 69°
2026-05-04 10:29 38.14909 13.01222 1394 ft 170 kts 68°
2026-05-04 10:29 38.15395 13.02569 1234 ft 157 kts 66°
2026-05-04 10:29 38.15815 13.03785 997 ft 150 kts 68°
2026-05-04 10:30 38.16220 13.05001 743 ft 147 kts 66°
2026-05-04 10:30 38.16598 13.06186 543 ft 145 kts 68°
2026-05-04 10:30 38.16991 13.07360 334 ft 144 kts 65°
2026-05-04 10:30 38.17381 13.08517 140 ft 142 kts 64°
2026-05-04 10:31 38.17760 13.09630 63 ft 116 kts 66°
2026-05-04 10:31 38.17983 13.10299 80 ft 51 kts 66°
2026-05-04 10:32 38.18216 13.10387 70 ft 14 kts 317°
2026-05-04 10:33 38.18300 13.10386 67 ft 13 kts 63°
2026-05-04 10:33 38.18339 13.10476 69 ft 10 kts 31°
2026-05-04 10:33 38.18400 13.10507 70 ft 8 kts 21°
2026-05-04 10:33 38.18446 13.10543 71 ft 8 kts 59°
2026-05-04 10:34 38.18470 13.10612 71 ft 7 kts 68°
2026-05-04 10:34 38.18504 13.10633 71 ft 7 kts 337°
2026-05-04 10:34 38.18546 13.10609 68 ft 4 kts 337°
2026-05-04 10:34 38.18552 13.10606 68 ft 0 kts 337°